2023/04/25 00:00:00, 0.1, 2.4
2023/04/25 00:10:00, 0.0, 2.5
2023/04/25 00:20:00, 0.1, 2.4
2023/04/25 00:30:00, 0.1, 2.4
2023/04/25 00:40:00, 0.0, 2.6
2023/04/25 00:50:00, 0.0, 2.0
2023/04/25 01:00:00, 0.0, 2.3
2023/04/25 01:10:00, 0.0, 1.9
2023/04/25 01:20:00, 0.0, 2.2
2023/04/25 01:30:00, 0.0, 2.0
2023/04/25 01:40:00, 0.0, 1.1
2023/04/25 01:50:00, 0.0, 2.2
2023/04/25 02:00:00, 0.0, 2.2
2023/04/25 02:10:00, 0.0, 2.0
2023/04/25 02:20:00, 0.0, 1.8
2023/04/25 02:30:00, 0.0, 1.6
2023/04/25 02:40:00, 0.0, 1.3
2023/04/25 02:50:00, 0.0, 1.8
2023/04/25 03:00:00, 0.0, 1.8
2023/04/25 03:10:00, 0.0, 1.5
2023/04/25 03:20:00, 0.0, 1.6
2023/04/25 03:30:00, 0.0, 1.2
2023/04/25 03:40:00, 0.0, 0.7
2023/04/25 03:50:00, 0.0, 0.7
2023/04/25 04:00:00, 0.0, 0.4
2023/04/25 04:10:00, 0.0,-0.1
2023/04/25 04:20:00, 0.0, 0.1
2023/04/25 04:30:00, 0.0, 1.0
2023/04/25 04:40:00, 0.0, 1.4
2023/04/25 04:50:00, 0.0, 1.5
2023/04/25 05:00:00, 0.0, 1.9
2023/04/25 05:10:00, 0.0, 1.8
2023/04/25 05:20:00, 0.0, 2.4
2023/04/25 05:30:00, 0.0, 2.4
2023/04/25 05:40:00, 0.0, 2.5
2023/04/25 05:50:00, 0.0, 3.0
2023/04/25 06:00:00, 0.1, 3.2
2023/04/25 06:10:00, 0.1, 3.0
2023/04/25 06:20:00, 0.2, 3.5
2023/04/25 06:30:00, 0.4, 4.2
2023/04/25 06:40:00, 1.0, 4.3
2023/04/25 06:50:00, 3.7, 4.5
2023/04/25 07:00:00, 4.5, 4.9
2023/04/25 07:10:00, 9.8, 5.0
2023/04/25 07:20:00,17.3, 5.2
2023/04/25 07:30:00,22.4, 5.3
2023/04/25 07:40:00,24.6, 5.4
2023/04/25 07:50:00,24.2, 5.5
2023/04/25 08:00:00,23.6, 5.3
2023/04/25 08:10:00,23.0, 5.1
2023/04/25 08:20:00,21.3, 5.2
2023/04/25 08:30:00,22.0, 5.4
2023/04/25 08:40:00,51.6, 5.5
2023/04/25 08:50:00,34.6, 5.8
2023/04/25 09:00:00,---, 6.0
2023/04/25 09:10:00,34.5, 6.1
2023/04/25 09:20:00,34.8, 6.8
2023/04/25 09:30:00,35.1, 7.3
2023/04/25 09:40:00,35.2, 7.3
2023/04/25 09:50:00,30.6, 7.6
2023/04/25 10:00:00,15.7, 8.1
2023/04/25 10:10:00,13.5, 8.4
2023/04/25 10:20:00,13.1, 8.4
2023/04/25 10:30:00, 8.5, 8.9
2023/04/25 10:40:00, 2.2, 9.2
2023/04/25 10:50:00, 0.9, 9.8
2023/04/25 11:00:00, 9.6,10.5
2023/04/25 11:10:00,---,10.5
2023/04/25 11:20:00,39.2,11.2
2023/04/25 11:30:00,46.4,11.5
2023/04/25 11:40:00,47.8,11.3
2023/04/25 11:50:00,---,11.0
2023/04/25 12:00:00,---,10.9
2023/04/25 12:10:00,---,11.2
2023/04/25 12:20:00,31.6,10.8
2023/04/25 12:30:00,57.1,10.7
2023/04/25 12:40:00,---,12.0
2023/04/25 12:50:00,28.6,11.9
2023/04/25 13:00:00,30.2,11.9
2023/04/25 13:10:00,30.9,12.2
2023/04/25 13:20:00,19.3,12.1
2023/04/25 13:30:00, 1.3,12.3
2023/04/25 13:40:00, 0.4,13.1
2023/04/25 13:50:00, 0.4,13.1
2023/04/25 14:00:00, 0.6,13.4
2023/04/25 14:10:00, 1.3,13.4
2023/04/25 14:20:00, 6.5,13.1
2023/04/25 14:30:00,12.0,12.8
2023/04/25 14:40:00,12.4,13.0
2023/04/25 14:50:00,15.3,13.1
2023/04/25 15:00:00,---,12.9
2023/04/25 15:10:00,13.8,13.9
2023/04/25 15:20:00,15.5,14.3
2023/04/25 15:30:00,20.4,14.1
2023/04/25 15:40:00,21.7,14.3
2023/04/25 15:50:00,---,14.6
2023/04/25 16:00:00,---,14.7
2023/04/25 16:10:00,15.1,15.1
2023/04/25 16:20:00,16.6,15.3
2023/04/25 16:30:00,19.2,15.1
2023/04/25 16:40:00,17.1,15.6
2023/04/25 16:50:00,16.3,15.2
2023/04/25 17:00:00,21.6,15.3
2023/04/25 17:10:00,13.4,15.6
2023/04/25 17:20:00,11.7,15.2
2023/04/25 17:30:00,39.3,14.9
2023/04/25 17:40:00,27.0,15.1
2023/04/25 17:50:00,15.1,14.9
2023/04/25 18:00:00,---,14.9
2023/04/25 18:10:00,37.0,14.8
2023/04/25 18:20:00,49.2,14.2
2023/04/25 18:30:00,36.8,12.8
2023/04/25 18:40:00, 2.6,12.8
2023/04/25 18:50:00, 5.6,12.6
2023/04/25 19:00:00, 1.5,12.8
2023/04/25 19:10:00,13.9,12.9
2023/04/25 19:20:00,24.8,13.1
2023/04/25 19:30:00,24.9,12.7
2023/04/25 19:40:00,14.3,12.8
2023/04/25 19:50:00, 2.3,12.8
2023/04/25 20:00:00,15.6,12.6
2023/04/25 20:10:00,20.7,12.7
2023/04/25 20:20:00,27.2,13.3
2023/04/25 20:30:00,---,13.2
2023/04/25 20:40:00,---,13.2
2023/04/25 20:50:00,34.5,13.4
2023/04/25 21:00:00,---,13.3
2023/04/25 21:10:00,44.3,13.7
2023/04/25 21:20:00,44.0,14.3
2023/04/25 21:30:00,35.1,14.1
2023/04/25 21:40:00,---,14.4
2023/04/25 21:50:00,---,14.0
2023/04/25 22:00:00,17.2,13.8
2023/04/25 22:10:00,37.0,14.1
2023/04/25 22:20:00,28.8,14.4
2023/04/25 22:30:00,35.3,14.3
2023/04/25 22:40:00,28.8,14.0
2023/04/25 22:50:00,---,13.7
2023/04/25 23:00:00,---,13.5
2023/04/25 23:10:00, 3.9,13.4
2023/04/25 23:20:00,---,13.4
2023/04/25 23:30:00, 6.7,13.5
2023/04/25 23:40:00,12.0,13.4
2023/04/25 23:50:00, 0.4,13.4
